When you browse on this site, cookies collect data to enhance your experience and personalize the content and advertising you see.
Visit our Privacy Policy to learn more. By continuing to use the site, you agree to this use of cookies and data.

Tiempo cada hora Molepolole

Hoy, 23 Septiembre, Miércoles

Tiempo Temperatura Precipitaciones Viento Presión Humedad
00:00 +13°C° 0 mm 6 mps 669 mmHg 72%
01:00 +11°C° 0 mm 6 mps 669 mmHg 75%
02:00 +10°C° 0 mm 5 mps 668 mmHg 78%
03:00 +10°C° 0 mm 5 mps 668 mmHg 81%
04:00 +10°C° 0 mm 4 mps 668 mmHg 84%
05:00 +10°C° 0 mm 4 mps 667 mmHg 87%
06:00 +10°C° 0 mm 5 mps 668 mmHg 81%
07:00 +12°C° 0 mm 5 mps 668 mmHg 76%
08:00 +13°C° 0 mm 6 mps 669 mmHg 70%
09:00 +16°C° 0 mm 6 mps 669 mmHg 59%
10:00 +20°C° 0 mm 6 mps 670 mmHg 48%
11:00 +23°C° 0 mm 6 mps 670 mmHg 37%
12:00 +26°C° 0 mm 5 mps 670 mmHg 33%
13:00 +28°C° 0 mm 4 mps 669 mmHg 29%
14:00 +29°C° 0 mm 3 mps 668 mmHg 25%
15:00 +30°C° 0 mm 3 mps 668 mmHg 24%
16:00 +30°C° 0 mm 3 mps 668 mmHg 23%
17:00 +30°C° 0 mm 3 mps 667 mmHg 22%
18:00 +28°C° 0 mm 3 mps 667 mmHg 27%
19:00 +25°C° 0 mm 3 mps 667 mmHg 31%
20:00 +21°C° 0 mm 2 mps 666 mmHg 36%
21:00 +21°C° 0 mm 3 mps 667 mmHg 38%
22:00 +20°C° 0 mm 3 mps 667 mmHg 39%
23:00 +19°C° 0 mm 3 mps 667 mmHg 41%

Mañana, 24 Septiembre, Jueves

Tiempo Temperatura Precipitaciones Viento Presión Humedad
00:00 +19°C° 0 mm 3 mps 666 mmHg 44%
01:00 +18°C° 0 mm 3 mps 666 mmHg 46%
02:00 +17°C° 0 mm 3 mps 665 mmHg 49%
03:00 +17°C° 0 mm 3 mps 665 mmHg 51%
04:00 +16°C° 0 mm 3 mps 665 mmHg 54%
05:00 +14°C° 0 mm 3 mps 665 mmHg 56%
06:00 +17°C° 0 mm 3 mps 665 mmHg 51%
07:00 +19°C° 0 mm 4 mps 666 mmHg 46%
08:00 +21°C° 0 mm 5 mps 667 mmHg 41%
09:00 +25°C° 0 mm 5 mps 668 mmHg 34%
10:00 +28°C° 0 mm 5 mps 668 mmHg 28%
11:00 +32°C° 0 mm 5 mps 668 mmHg 21%
12:00 +33°C° 0 mm 4 mps 668 mmHg 19%
13:00 +34°C° 0 mm 4 mps 667 mmHg 17%
14:00 +36°C° 0 mm 3 mps 666 mmHg 15%
15:00 +35°C° 0 mm 3 mps 666 mmHg 16%
16:00 +35°C° 0 mm 2 mps 665 mmHg 16%
17:00 +34°C° 0 mm 1 mps 665 mmHg 16%
18:00 +31°C° 0 mm 2 mps 664 mmHg 19%
19:00 +29°C° 0 mm 2 mps 664 mmHg 21%
20:00 +27°C° 0 mm 2 mps 664 mmHg 24%
21:00 +26°C° 0 mm 3 mps 664 mmHg 25%
22:00 +25°C° 0 mm 4 mps 664 mmHg 26%
23:00 +23°C° 0 mm 5 mps 664 mmHg 27%

Pasado mañana, 25 Septiembre, Viernes

Tiempo Temperatura Precipitaciones Viento Presión Humedad
00:00 +23°C° 0 mm 4 mps 663 mmHg 28%
01:00 +22°C° 0 mm 4 mps 663 mmHg 29%
02:00 +21°C° 0 mm 4 mps 663 mmHg 30%
03:00 +20°C° 0 mm 3 mps 663 mmHg 31%
04:00 +20°C° 0 mm 2 mps 663 mmHg 33%
05:00 +20°C° 0 mm 1 mps 663 mmHg 35%
06:00 +21°C° 0 mm 2 mps 663 mmHg 31%
07:00 +23°C° 0 mm 2 mps 664 mmHg 27%
08:00 +25°C° 0 mm 2 mps 665 mmHg 24%
09:00 +29°C° 0 mm 3 mps 665 mmHg 20%
10:00 +33°C° 0 mm 5 mps 666 mmHg 17%
11:00 +36°C° 0 mm 6 mps 666 mmHg 14%
12:00 +38°C° 0 mm 6 mps 665 mmHg 13%
13:00 +39°C° 0 mm 6 mps 664 mmHg 12%
14:00 +40°C° 0 mm 6 mps 663 mmHg 11%
15:00 +39°C° 0 mm 6 mps 663 mmHg 12%
16:00 +38°C° 0 mm 6 mps 662 mmHg 12%
17:00 +38°C° 0 mm 6 mps 661 mmHg 12%
18:00 +34°C° 0 mm 4 mps 661 mmHg 17%
19:00 +30°C° 0 mm 3 mps 661 mmHg 21%
20:00 +27°C° 0 mm 2 mps 660 mmHg 25%
21:00 +27°C° 0 mm 3 mps 660 mmHg 25%
22:00 +27°C° 0 mm 4 mps 660 mmHg 25%
23:00 +27°C° 0 mm 4 mps 661 mmHg 25%

26 Septiembre, Sábado

Tiempo Temperatura Precipitaciones Viento Presión Humedad
00:00 +26°C° 0 mm 4 mps 660 mmHg 26%
01:00 +26°C° 0 mm 3 mps 660 mmHg 26%
02:00 +25°C° 0 mm 2 mps 659 mmHg 27%
03:00 +24°C° 0 mm 3 mps 659 mmHg 28%
04:00 +23°C° 0 mm 4 mps 659 mmHg 29%
05:00 +22°C° 0 mm 4 mps 659 mmHg 30%
06:00 +23°C° 0 mm 4 mps 660 mmHg 27%
07:00 +23°C° 0 mm 4 mps 661 mmHg 24%
08:00 +25°C° 0 mm 4 mps 662 mmHg 21%
09:00 +28°C° 0 mm 5 mps 662 mmHg 17%
10:00 +30°C° 0 mm 5 mps 663 mmHg 12%
11:00 +34°C° 0 mm 6 mps 663 mmHg 8%
12:00 +34°C° 0 mm 6 mps 663 mmHg 7%
13:00 +35°C° 0 mm 7 mps 662 mmHg 6%
14:00 +36°C° 0 mm 7 mps 662 mmHg 5%
15:00 +35°C° 0 mm 7 mps 662 mmHg 5%
16:00 +34°C° 0 mm 7 mps 661 mmHg 5%
17:00 +32°C° 0 mm 7 mps 661 mmHg 5%
18:00 +28°C° 0 mm 6 mps 661 mmHg 7%
19:00 +25°C° 0 mm 5 mps 661 mmHg 9%
20:00 +21°C° 0 mm 4 mps 661 mmHg 12%
21:00 +20°C° 0 mm 4 mps 661 mmHg 12%
22:00 +19°C° 0 mm 5 mps 661 mmHg 13%
23:00 +17°C° 0 mm 5 mps 661 mmHg 14%

27 Septiembre, Domingo

Tiempo Temperatura Precipitaciones Viento Presión Humedad
00:00 +16°C° 0 mm 5 mps 661 mmHg 14%
01:00 +15°C° 0 mm 5 mps 661 mmHg 14%
02:00 +14°C° 0 mm 4 mps 661 mmHg 14%
03:00 +13°C° 0 mm 4 mps 661 mmHg 16%
04:00 +12°C° 0 mm 4 mps 660 mmHg 17%
05:00 +11°C° 0 mm 4 mps 660 mmHg 18%
06:00 +13°C° 0 mm 4 mps 661 mmHg 16%
07:00 +15°C° 0 mm 4 mps 662 mmHg 14%
08:00 +17°C° 0 mm 5 mps 662 mmHg 12%
09:00 +21°C° 0 mm 4 mps 663 mmHg 10%
10:00 +25°C° 0 mm 4 mps 663 mmHg 7%
11:00 +29°C° 0 mm 3 mps 663 mmHg 5%
12:00 +30°C° 0 mm 3 mps 663 mmHg 5%
13:00 +33°C° 0 mm 3 mps 663 mmHg 4%
14:00 +34°C° 0 mm 3 mps 662 mmHg 4%
15:00 +34°C° 0 mm 4 mps 662 mmHg 4%
16:00 +33°C° 0 mm 5 mps 662 mmHg 4%
17:00 +33°C° 0 mm 6 mps 661 mmHg 4%
18:00 +29°C° 0 mm 6 mps 661 mmHg 5%
19:00 +25°C° 0 mm 5 mps 661 mmHg 6%
20:00 +21°C° 0 mm 5 mps 661 mmHg 6%
21:00 +20°C° 0 mm 5 mps 662 mmHg 7%
22:00 +19°C° 0 mm 5 mps 662 mmHg 8%
23:00 +19°C° 0 mm 5 mps 662 mmHg 9%

28 Septiembre, Lunes

Tiempo Temperatura Precipitaciones Viento Presión Humedad
00:00 +16°C° 0 mm 5 mps 662 mmHg 10%
01:00 +15°C° 0 mm 4 mps 662 mmHg 11%
02:00 +14°C° 0 mm 3 mps 662 mmHg 13%
03:00 +13°C° 0 mm 3 mps 662 mmHg 13%
04:00 +12°C° 0 mm 3 mps 662 mmHg 14%
05:00 +12°C° 0 mm 2 mps 662 mmHg 15%
06:00 +13°C° 0 mm 3 mps 663 mmHg 13%
07:00 +17°C° 0 mm 4 mps 664 mmHg 11%
08:00 +19°C° 0 mm 5 mps 665 mmHg 9%
09:00 +21°C° 0 mm 4 mps 666 mmHg 9%
10:00 +25°C° 0 mm 4 mps 666 mmHg 9%
11:00 +27°C° 0 mm 4 mps 666 mmHg 9%
12:00 +29°C° 0 mm 3 mps 666 mmHg 8%
13:00 +30°C° 0 mm 2 mps 666 mmHg 6%
14:00 +32°C° 0 mm 1 mps 665 mmHg 5%
15:00 +32°C° 0 mm 2 mps 665 mmHg 5%
16:00 +32°C° 0 mm 2 mps 665 mmHg 5%
17:00 +31°C° 0 mm 2 mps 665 mmHg 5%
18:00 +28°C° 0 mm 3 mps 664 mmHg 6%
19:00 +25°C° 0 mm 4 mps 664 mmHg 8%
20:00 +20°C° 0 mm 4 mps 664 mmHg 9%
21:00 +19°C° 0 mm 4 mps 664 mmHg 10%
22:00 +18°C° 0 mm 4 mps 664 mmHg 10%
23:00 +17°C° 0 mm 4 mps 664 mmHg 10%
Mostrar más